Helicity
55 -9 133 64 179 235 324 404 336 246 303 319 334 270 276 229 189 270 250 180 128 127 113 138 132 74 17 65 69 46 107 128 132 127 205 174 112 104 105 250 216 291 318 261
55 173 50 91 170 233 441 426 420 288 383 399 366 378 362 242 204 208 189 179 159 123 131 163 37 62 129 130 117 110 165 122 97 76 126 177 188 157 118 274 370 324 297 423
-18 233 133 201 198 205 416 535 486 412 372 370 242 425 340 249 255 223 220 220 263 224 182 156 149 133 100 180 242 306 304 303 261 180 194 246 294 261 271 298 380 225 349 187
-11 136 243 121 238 225 435 504 442 477 447 457 307 261 257 236 272 271 251 236 196 212 223 204 200 82 129 216 307 319 246 272 309 293 248 202 186 232 267 320 235 368 244 299
43 -37 225 200 242 174 383 492 458 569 393 377 350 296 326 227 253 301 237 206 158 138 231 210 105 121 144 222 312 286 334 323 312 240 170 191 223 228 197 201 162 185 168 196
74 -21 207 173 184 333 477 400 453 322 336 344 301 360 277 256 239 206 163 146 168 214 141 231 277 257 291 317 301 229 290 318 285 228 307 252 189 161 74 93 200 200 191 200
23 -4 157 115 165 329 603 481 495 599 558 356 215 202 258 236 179 186 234 225 226 374 381 386 386 423 385 358 266 270 330 317 316 319 275 252 394 319 273 221 215 132 121 102
-26 52 254 132 146 169 715 513 524 501 452 325 270 256 149 102 160 193 281 380 372 374 410 351 304 212 236 290 323 350 301 329 333 324 291 311 219 300 251 203 164 123 109 71
4 248 124 170 172 78 291 317 465 460 384 323 315 375 290 395 453 524 499 545 515 539 542 348 168 178 215 217 266 207 330 310 312 423 355 376 442 311 216 178 163 145 134 63
84 189 71 151 162 234 268 335 513 399 417 505 422 451 402 496 523 502 581 604 588 566 368 290 301 308 304 269 260 245 301 330 286 288 359 349 360 273 162 244 251 122 48 40
154 194 155 170 156 92 239 291 429 427 621 474 544 541 488 622 560 490 461 598 477 406 288 300 356 269 234 264 274 245 206 238 329 314 375 233 198 153 173 209 95 54 44 48
68 205 83 197 136 142 314 348 364 640 580 460 554 515 630 554 538 590 471 393 339 249 328 322 271 259 213 225 236 224 248 290 350 226 212 223 84 105 33 108 74 59 59 46
59 330 187 107 171 244 360 391 489 588 759 872 672 662 588 515 438 448 440 356 324 336 290 238 207 207 171 202 211 209 201 201 197 175 62 61 78 59 50 63 54 44 54 54
20 53 139 152 192 310 440 497 535 606 715 645 636 517 522 491 349 317 289 302 204 183 168 190 195 199 142 195 196 131 160 131 88 77 17 51 48 55 56 61 78 91 81 67
50 83 116 231 349 470 659 671 548 486 346 313 745 591 529 409 349 285 186 164 181 154 168 171 182 162 130 118 98 84 119 92 135 116 94 90 77 91 91 100 100 100 84 69
33 51 125 281 302 340 517 353 453 519 491 288 347 485 520 354 255 240 206 154 170 138 152 157 103 73 67 74 62 54 56 54 66 77 120 96 65 71 67 92 88 73 82 64
72 102 204 317 369 407 434 215 267 343 414 381 375 363 332 264 219 209 195 153 138 117 93 83 70 74 82 83 104 110 100 108 90 79 95 86 66 97 73 84 77 83 74 69
220 388 397 394 404 471 407 371 345 369 312 313 265 176 208 167 171 155 131 129 82 74 64 55 74 80 74 73 57 72 81 81 74 71 80 83 76 88 90 102 110 103 98 88
503 446 391 525 431 378 232 152 197 188 139 100 122 162 182 115 156 124 90 55 91 51 73 67 52 70 70 89 85 89 105 85 56 62 78 99 121 129 135 120 63 64 62 60
476 567 395 353 227 39 52 204 209 171 127 99 158 168 205 118 114 100 79 58 92 75 64 51 49 66 50 52 58 69 92 105 119 121 119 110 116 148 144 107 66 89 105 104
547 350 320 163 101 197 191 158 146 115 134 120 144 71 147 68 93 114 41 62 60 71 72 62 60 64 73 61 68 80 91 92 111 120 116 120 146 183 183 134 114 125 143 147
210 200 209 190 210 139 95 122 97 105 93 127 83 108 105 70 33 52 40 65 52 78 52 51 65 81 74 76 84 84 81 86 101 109 108 122 120 151 160 193 192 156 117 87
297 298 210 83 65 75 65 59 79 64 90 56 48 95 55 27 21 46 37 54 70 60 48 57 74 99 88 96 110 112 113 116 111 114 170 295 332 311 238 155 111 154 166 159
213 157 121 126 96 62 78 81 80 57 55 84 59 83 24 23 40 25 53 57 59 55 59 69 101 125 119 118 144 164 210 187 195 225 211 201 158 127 110 144 130 149 157 131
187 142 124 101 110 141 99 91 105 70 62 67 55 47 33 43 34 28 48 51 52 47 76 109 132 140 150 196 229 238 234 217 217 234 245 223 190 158 142 110 95 116 95 108
169 105 143 52 90 123 74 71 128 39 45 44 56 24 19 31 35 32 31 56 53 77 99 135 147 164 194 224 242 220 214 212 201 195 167 162 140 112 97 100 92 81 79 77
161 93 91 51 116 78 67 63 58 89 58 3 24 34 20 22 12 34 38 49 82 111 126 133 150 172 202 206 202 186 183 173 150 130 130 120 89 75 90 90 82 69 64 79
Wind_Speed
106 119 104 88 69 72 65 62 75 55 50 63 66 71 59 57 54 46 49 44 38 44 49 56 58 52 47 42 47 54 45 53 57 54 54 54 50 50 39 56 63 60 72 97
104 120 113 88 75 80 65 69 61 56 65 78 73 63 59 60 51 53 52 47 42 47 54 58 54 59 50 50 50 49 38 48 67 61 56 49 49 41 42 49 60 71 85 78
100 118 120 92 80 86 66 60 67 62 69 72 68 63 63 61 53 57 51 46 45 49 55 52 63 63 59 56 55 49 40 52 55 70 73 72 65 57 51 56 75 79 74 93
106 105 114 106 86 92 72 70 77 69 79 75 64 59 53 54 59 56 47 58 55 55 67 61 70 75 67 60 50 44 44 68 64 67 70 71 72 72 60 63 65 81 88 86
108 111 107 104 96 96 81 78 68 64 66 65 66 64 69 57 52 49 59 66 54 52 64 60 83 71 64 61 46 46 51 67 61 72 65 63 70 62 60 62 63 71 74 82
111 111 114 119 94 101 86 70 60 60 75 64 67 68 57 56 46 56 57 58 53 68 67 62 66 61 60 48 46 47 52 53 59 76 61 71 87 63 53 55 57 62 74 75
112 109 115 105 115 107 77 73 64 67 74 61 58 49 48 48 43 45 50 49 53 46 33 40 57 58 52 51 47 39 46 45 50 70 66 88 63 48 48 52 55 58 65 69
106 112 123 127 110 121 78 68 70 73 84 64 60 51 43 40 41 52 60 49 44 26 41 65 59 57 58 52 45 40 34 40 57 67 67 74 62 55 52 56 66 58 59 50
104 117 126 125 114 96 81 77 69 62 69 84 53 53 49 55 51 53 52 38 29 42 46 50 58 59 54 47 41 30 35 37 45 55 75 86 59 43 44 53 77 38 41 54
103 108 127 129 115 107 93 63 61 62 70 58 46 56 45 46 42 46 43 37 45 41 46 48 55 59 44 51 51 49 44 48 55 58 71 69 55 40 41 65 61 37 53 57
90 91 113 107 105 93 75 63 64 63 61 53 53 50 41 35 36 41 35 41 46 39 46 50 49 50 43 47 45 46 45 50 56 53 66 79 36 32 50 47 45 53 54 51
81 82 101 97 91 88 67 63 46 38 52 52 42 35 42 46 44 33 27 45 31 28 38 39 37 42 42 44 60 38 52 46 52 47 54 47 29 43 41 45 51 53 50 46
82 81 79 89 85 69 58 56 48 38 39 35 36 39 44 40 35 29 32 31 27 27 27 25 31 43 34 48 50 46 44 39 49 52 50 46 47 47 48 45 50 49 47 47
82 82 82 84 69 57 51 50 47 42 35 39 41 41 41 45 35 30 30 15 17 12 18 28 32 40 36 45 46 43 42 35 46 52 54 58 56 52 46 48 42 47 48 47
72 70 63 61 54 46 35 31 40 36 37 35 35 30 32 33 26 15 8 5 8 16 26 33 38 35 36 40 44 48 32 40 47 59 52 53 55 52 45 47 47 50 54 50
65 58 58 54 41 47 42 38 36 36 28 26 28 26 25 18 13 12 13 15 21 27 30 33 34 32 35 42 49 41 36 41 45 54 52 54 54 51 50 48 52 55 47 47
58 51 43 37 37 39 47 41 28 15 13 24 23 23 26 23 17 19 21 25 27 29 31 33 33 34 33 45 53 46 43 42 47 44 51 55 51 58 53 49 51 49 48 51
51 51 42 38 31 20 13 12 12 12 16 22 24 23 18 19 19 24 27 26 26 32 32 32 35 35 39 50 45 46 47 48 46 47 47 49 53 54 52 49 50 54 54 55
62 55 45 23 18 24 20 11 2 7 14 16 19 15 22 13 19 19 22 25 30 31 34 34 35 40 43 45 45 46 51 51 52 53 52 49 49 51 51 53 52 53 56 59
57 46 34 24 25 27 22 13 16 18 20 21 17 13 13 4 11 19 21 26 29 35 34 32 38 42 40 40 40 44 44 48 51 51 50 51 52 50 51 55 58 62 64 67
49 39 28 40 35 16 16 17 23 18 18 18 13 5 6 11 15 17 25 26 29 36 35 35 37 41 39 36 40 41 43 44 45 49 51 53 53 56 59 61 62 63 66 68
43 37 36 29 18 14 18 20 16 20 16 9 6 10 14 16 20 24 26 30 30 33 26 34 37 34 37 42 43 43 41 44 50 54 58 57 58 58 61 64 65 66 68 70
46 24 18 20 23 22 23 20 16 14 5 8 17 15 18 19 25 27 27 28 30 26 30 33 35 37 40 40 41 46 48 55 62 66 63 61 64 64 66 67 68 72 73 74
24 20 18 22 22 23 20 10 3 6 23 28 21 17 21 22 25 25 27 27 26 29 34 37 35 38 42 44 49 56 62 67 68 67 67 66 67 68 68 70 71 72 73 73
17 17 18 19 11 3 9 17 25 38 34 26 24 23 24 25 26 27 28 26 27 28 34 36 37 42 48 51 57 62 66 69 69 68 70 70 69 68 68 66 66 68 66 67
17 16 4 10 15 18 26 33 34 25 20 19 17 21 27 26 26 26 26 27 31 32 34 36 40 46 51 55 59 64 65 66 66 66 66 66 65 67 66 64 63 63 64 63
11 4 9 17 23 25 23 23 15 32 21 14 19 25 26 28 26 26 29 30 31 30 34 39 44 48 52 55 60 62 64 64 63 64 65 64 63 61 62 63 64 64 62 62
Wind_Direction
237 231 224 226 214 199 204 221 235 232 223 233 246 247 251 259 258 270 277 283 283 288 295 296 298 301 306 318 319 310 311 309 307 309 313 313 311 310 305 311 314 311 309 308
231 227 222 221 212 197 207 220 239 235 228 237 242 252 254 258 261 264 271 275 283 291 290 294 296 299 311 313 310 313 312 307 307 312 316 318 312 311 305 307 314 304 305 309
229 226 218 218 212 200 209 222 231 237 235 242 234 244 251 252 262 267 269 278 286 287 288 291 297 300 306 311 309 304 304 301 299 299 304 312 309 309 308 306 307 306 301 308
227 228 225 217 208 198 210 223 237 234 231 234 239 238 250 248 258 264 270 277 276 281 286 288 292 295 301 308 309 304 303 299 301 301 303 305 304 305 304 300 300 304 310 310
226 226 229 216 210 195 213 225 236 234 242 231 237 236 247 245 251 264 266 271 278 276 279 286 289 297 302 303 305 301 304 303 308 305 307 307 305 303 302 300 301 304 308 310
225 225 227 215 209 198 220 231 233 230 237 233 231 238 241 246 253 267 270 274 276 279 283 291 297 300 302 299 302 301 304 304 308 306 315 315 309 305 301 306 309 312 311 317
225 226 226 214 212 205 225 225 224 235 239 231 218 230 239 248 232 256 276 277 278 288 309 309 303 302 300 299 300 304 305 305 310 308 314 308 321 330 324 316 315 315 316 320
224 224 222 213 213 214 224 229 224 236 239 241 246 246 226 234 255 269 275 282 291 290 298 299 298 300 300 300 301 304 305 307 308 308 307 312 311 317 318 317 316 318 318 324
222 222 215 210 213 215 227 232 233 239 242 245 251 250 250 258 261 272 279 297 292 297 297 293 290 294 301 308 315 319 316 310 305 311 309 311 322 326 330 329 317 328 330 326
221 223 211 211 216 219 223 233 232 235 245 254 249 252 246 264 263 272 283 282 286 296 289 287 291 293 302 302 305 308 310 311 301 304 309 313 320 322 330 318 324 330 327 327
219 224 211 211 214 216 219 234 235 235 243 256 258 264 264 262 259 269 284 287 287 287 282 291 295 295 298 305 311 313 309 311 311 309 310 311 325 328 318 327 327 326 328 329
218 216 211 210 210 213 219 233 238 238 245 256 265 274 282 277 276 272 268 288 291 286 294 296 303 303 308 308 307 315 310 312 316 312 316 325 314 321 316 323 324 326 327 329
214 215 212 209 209 210 222 226 226 233 247 261 268 274 282 289 283 289 278 289 301 297 310 311 316 310 317 310 311 315 313 315 315 319 319 307 312 312 312 315 318 324 324 324
210 210 210 206 203 207 216 223 230 233 244 257 270 276 271 276 286 297 299 298 316 328 326 323 321 316 319 317 320 316 318 321 316 314 314 314 314 316 316 317 317 322 323 321
210 207 203 192 191 192 198 221 239 241 244 259 258 276 292 292 304 327 354 358 349 331 325 323 318 324 325 326 324 315 317 318 317 320 327 321 322 327 328 323 322 320 320 319
203 192 190 191 185 187 209 239 255 246 241 255 270 279 285 307 346 1 352 338 332 327 326 326 329 337 329 326 324 332 330 323 322 320 329 327 324 325 323 318 319 319 316 316
183 180 173 175 193 210 228 237 209 197 260 259 268 282 278 291 313 318 327 332 329 331 330 329 332 334 334 328 323 333 334 333 329 331 330 327 328 327 327 325 320 320 317 315
165 164 154 143 143 178 193 196 182 246 273 276 273 279 272 297 296 303 319 322 332 331 332 335 333 337 331 326 332 336 337 337 335 334 332 329 329 328 327 327 325 320 318 318
156 148 146 163 196 205 194 187 211 329 293 277 282 258 275 289 303 325 328 334 324 339 332 336 337 333 329 336 339 341 342 340 336 336 333 333 333 332 331 330 329 324 321 320
145 171 191 208 200 140 139 231 261 280 304 312 299 307 300 311 323 329 339 339 333 331 338 347 337 335 341 343 346 348 351 352 351 349 346 343 339 337 335 333 330 326 322 319
182 194 191 156 172 216 264 266 262 296 324 311 311 0 91 8 334 340 350 347 348 335 341 343 344 343 352 2 358 357 356 354 351 348 344 340 335 330 329 328 328 327 325 322
191 152 160 184 231 282 283 273 303 297 304 310 82 70 33 25 15 357 353 344 349 345 2 351 351 359 4 0 358 356 355 350 344 341 336 332 329 328 327 327 327 328 325 322
151 174 213 244 265 271 265 270 288 298 280 87 97 61 31 19 5 -0 0 360 359 16 3 1 360 4 4 3 0 355 353 347 341 338 339 341 340 337 334 331 330 328 326 323
208 233 238 265 271 274 275 290 354 50 101 102 83 35 7 11 6 6 14 14 22 8 358 358 7 9 6 1 357 354 351 348 347 347 345 342 339 336 334 333 332 330 328 326
236 258 274 279 277 296 55 68 83 96 95 86 69 32 18 14 26 19 24 25 13 10 4 7 12 8 4 360 356 354 352 351 349 349 347 345 344 342 341 341 338 337 335 334
253 273 207 94 84 71 81 90 89 85 77 52 349 22 42 30 34 31 28 25 11 12 14 18 12 6 3 0 359 357 355 355 354 354 353 352 351 349 347 348 347 346 343 341
275 283 39 69 79 84 83 80 83 194 222 5 353 12 23 53 55 39 31 21 21 28 21 16 10 5 3 3 1 1 0 1 1 0 359 358 357 357 356 353 352 350 348 346